Sarasota, FL

1:47 PM EST on December 14, 2019 (GMT -0500)
Sarasota-bradenton

Weather History for KSRQ - September, 2019

Change the Weather History Date:

Sunday, September 22, 2019

  Actual Average Record
Temperature  
Mean Temperature 82 °F 81 °F  
Max Temperature 91 °F 89 °F 94 °F (1992)
Min Temperature 73 °F 74 °F 60 °F (1913)
Degree Days  
Heating Degree Days 0 0  
Month to date heating degree days 0 0  
Since 1 July heating degree days 0 0  
Cooling Degree Days 17 16  
Month to date cooling degree days 456 369  
Year to date cooling degree days 3314 2666  
Growing Degree Days 32 (Base 50)    
Moisture  
Dew Point 67 °F    
Average Humidity 64    
Maximum Humidity 87    
Minimum Humidity 41    
Precipitation  
Precipitation 0.00 in 0.19 in 2.00 in (1982)
Month to date precipitation 1.99 5.81  
Year to date precipitation 43.38 44.14  
Sea Level Pressure  
Sea Level Pressure 30.04 in    
Wind  
Wind Speed 9 mph ()    
Max Wind Speed 22 mph    
Max Gust Speed 30 mph    
Visibility 10.0 miles    
Events      
T = Trace of Precipitation, MM = Missing Value Source: Averaged Metar Reports

Daily Weather History Graph

Daily Weather History Graph

Search for Another Location

Airport or City:

Astronomy

Sep. 22, 2019 Rise Set
Actual Time 7:18 AM EDT 7:26 PM EDT
Civil Twilight 6:55 AM EDT 7:50 PM EDT
Nautical Twilight 6:28 AM EDT 8:17 PM EDT
Astronomical Twilight 6:00 AM EDT 8:44 PM EDT
Moon 12:38 AM EDT (9/22) 2:48 PM EDT (9/22)
Length of Visible Light 12h 54m
Length of Day
12h 08m
Last Quarter, 44% of the Moon is Illuminated
Sep 22
Last Quarter
Sep 28
New
Oct 5
First Quarter
Oct 13
Full
Oct 21
Last Quarter

Hourly Weather History & Observations

Time (EDT) Temp. Heat Index Dew Point Humidity Pressure Visibility Wind Dir Wind Speed Gust Speed Precip Events Conditions
12:53 AM 77.0 °F - 69.1 °F 76% 30.07 in 10.0 mi NE 6.9 mph - N/A   Clear
1:53 AM 75.9 °F - 69.1 °F 79% 30.07 in 10.0 mi NE 9.2 mph - N/A   Clear
2:53 AM 75.9 °F - 69.1 °F 79% 30.06 in 10.0 mi NE 8.1 mph - N/A   Clear
3:53 AM 75.0 °F - 69.1 °F 82% 30.04 in 10.0 mi NE 5.8 mph - N/A   Clear
4:53 AM 73.9 °F - 69.1 °F 85% 30.03 in 10.0 mi NE 6.9 mph - N/A   Clear
5:53 AM 73.0 °F - 69.1 °F 87% 30.03 in 10.0 mi NE 5.8 mph - N/A   Clear
6:53 AM 73.9 °F - 69.1 °F 85% 30.04 in 10.0 mi ENE 6.9 mph - N/A   Clear
7:53 AM 73.9 °F - 69.1 °F 85% 30.06 in 10.0 mi NE 5.8 mph - N/A   Clear
8:53 AM 78.1 °F - 69.1 °F 74% 30.07 in 10.0 mi ENE 10.4 mph - N/A   Clear
9:53 AM 81.0 °F 83.8 °F 68.0 °F 65% 30.08 in 10.0 mi ENE 12.7 mph - N/A   Clear
10:53 AM 84.0 °F 85.8 °F 64.9 °F 53% 30.07 in 10.0 mi East 18.4 mph 29.9 mph N/A   Clear
11:53 AM 86.0 °F 88.2 °F 66.0 °F 51% 30.06 in 10.0 mi East 18.4 mph 25.3 mph N/A   Clear
12:53 PM 89.1 °F 92.9 °F 68.0 °F 50% 30.04 in 10.0 mi ENE 15.0 mph 24.2 mph N/A   Clear
1:53 PM 89.1 °F 91.3 °F 66.0 °F 46% 30.02 in 10.0 mi East 20.7 mph 25.3 mph N/A   Clear
2:53 PM 90.0 °F 92.4 °F 66.0 °F 45% 30.01 in 10.0 mi East 17.3 mph 24.2 mph N/A   Partly Cloudy
3:53 PM 91.0 °F 93.0 °F 64.9 °F 42% 30.00 in 10.0 mi ENE 16.1 mph 23.0 mph N/A   Partly Cloudy
4:53 PM 90.0 °F 91.3 °F 64.0 °F 42% 29.98 in 10.0 mi ENE 12.7 mph 23.0 mph N/A   Clear
5:53 PM 89.1 °F 90.3 °F 64.0 °F 43% 29.99 in 10.0 mi East 13.8 mph 20.7 mph N/A   Clear
6:53 PM 86.0 °F 87.3 °F 64.0 °F 48% 29.99 in 10.0 mi East 10.4 mph - N/A   Clear
7:53 PM 82.9 °F 84.6 °F 64.9 °F 54% 30.01 in 10.0 mi ENE 9.2 mph - N/A   Clear
8:53 PM 81.0 °F 82.5 °F 64.0 °F 56% 30.03 in 10.0 mi ENE 9.2 mph - N/A   Clear
9:53 PM 79.0 °F - 64.9 °F 62% 30.04 in 10.0 mi East 9.2 mph - N/A   Clear
10:53 PM 78.1 °F - 66.0 °F 66% 30.05 in 10.0 mi ENE 10.4 mph - N/A   Clear
11:53 PM 75.9 °F - 66.9 °F 74% 30.04 in 10.0 mi ENE 5.8 mph - N/A   Clear